Weather History for Oakland, CA

Change the Weather History Date:

Sunday, June 24, 2012

  Actual Average Record
Temperature  
Mean Temperature 61 °F 63 °F  
Max Temperature 68 °F 71 °F 99 °F (1957)
Min Temperature 53 °F 55 °F 47 °F (1950)
Degree Days  
Heating Degree Days 4 3  
Month to date heating degree days 115 88  
Since 1 June heating degree days 115 88  
Since 1 July heating degree days 2890 2858  
Cooling Degree Days 0 1  
Month to date cooling degree days 9 13  
Year to date cooling degree days 16 29  
Since 1 June cooling degree days 9 13  
Growing Degree Days 10 (Base 50)    
Moisture  
Dew Point 47 °F    
Average Humidity 64    
Maximum Humidity 83    
Minimum Humidity 45    
Precipitation  
Precipitation 0.00 in 0.00 in 0.07 in (1975)
Month to date precipitation 0.09 0.17  
Year to date precipitation 11.94 13.21  
Since 1 July precipitation 15.01 20.80  
Sea Level Pressure  
Sea Level Pressure 30.02 in    
Wind  
Wind Speed 10 mph (West)    
Max Wind Speed 22 mph    
Max Gust Speed 25 mph    
Visibility 10 miles    
Events      
T = Trace of Precipitation, MM = Missing Value Source: NWS Daily Summary

Daily Weather History Graph

Daily Weather History Graph

Search for Another Location

Airport:

Trip Planner

Search our weather history database for the weather conditions in past years. The results will help you decide how hot, cold, wet, or windy it might be!

Date:

Astronomy

Jun. 24, 2012 Rise Set
Actual Time 5:48 AM PDT 8:34 PM PDT
Civil Twilight 5:17 AM PDT 9:05 PM PDT
Nautical Twilight 4:37 AM PDT 9:45 PM PDT
Astronomical Twilight 3:53 AM PDT 10:29 PM PDT
Moon 10:54 AM PDT (6/24) 11:42 PM PDT (6/24)
Length of Visible Light 15h 48m
Length of Day
14h 46m
Waxing Crescent, 25% of the Moon is Illuminated
Jun 24
Waxing Crescent
Jun 26
First Quarter
Jul 3
Full
Jul 10
Last Quarter
Jul 18
New

Hourly Weather History & Observations

Time (PDT) Temp. Dew Point Humidity Pressure Visibility Wind Dir Wind Speed Gust Speed Precip Events Conditions
12:53 AM 55.9 °F 48.0 °F 75% 29.97 in 10.0 mi West 12.7 mph - N/A   Scattered Clouds
1:53 AM 55.0 °F 48.0 °F 77% 29.97 in 10.0 mi West 8.1 mph - N/A   Scattered Clouds
2:53 AM 55.0 °F 46.9 °F 74% 29.97 in 10.0 mi West 10.4 mph - N/A   Partly Cloudy
3:53 AM 55.0 °F 48.0 °F 77% 29.99 in 10.0 mi West 12.7 mph - N/A   Partly Cloudy
4:53 AM 54.0 °F 48.0 °F 80% 30.00 in 10.0 mi WNW 8.1 mph - N/A   Partly Cloudy
5:53 AM 54.0 °F 48.9 °F 83% 30.01 in 10.0 mi WNW 8.1 mph - N/A   Mostly Cloudy
6:28 AM 53.6 °F 48.2 °F 82% 30.02 in 10.0 mi Calm Calm - N/A   Scattered Clouds
6:53 AM 54.0 °F 48.0 °F 80% 30.02 in 10.0 mi WNW 3.5 mph - N/A   Scattered Clouds
7:53 AM 55.9 °F 48.0 °F 75% 30.03 in 10.0 mi Calm Calm - N/A   Partly Cloudy
8:53 AM 57.9 °F 46.9 °F 67% 30.04 in 10.0 mi WSW 3.5 mph - N/A   Partly Cloudy
9:53 AM 59.0 °F 46.0 °F 62% 30.05 in 10.0 mi WSW 6.9 mph - N/A   Partly Cloudy
10:53 AM 61.0 °F 46.0 °F 58% 30.06 in 10.0 mi WSW 5.8 mph - N/A   Partly Cloudy
11:53 AM 63.0 °F 45.0 °F 52% 30.06 in 10.0 mi Variable 4.6 mph - N/A   Partly Cloudy
12:53 PM 64.0 °F 46.0 °F 52% 30.07 in 10.0 mi West 13.8 mph - N/A   Partly Cloudy
1:53 PM 64.9 °F 45.0 °F 48% 30.06 in 10.0 mi West 16.1 mph - N/A   Partly Cloudy
2:53 PM 66.9 °F 45.0 °F 45% 30.04 in 10.0 mi West 17.3 mph - N/A   Partly Cloudy
3:53 PM 66.9 °F 45.0 °F 45% 30.03 in 10.0 mi West 17.3 mph - N/A   Partly Cloudy
4:53 PM 64.9 °F 45.0 °F 48% 30.03 in 10.0 mi West 19.6 mph - N/A   Partly Cloudy
5:53 PM 64.0 °F 45.0 °F 50% 30.02 in 10.0 mi West 19.6 mph - N/A   Clear
6:53 PM 62.1 °F 46.0 °F 56% 30.01 in 10.0 mi West 19.6 mph - N/A   Clear
7:53 PM 60.1 °F 46.0 °F 60% 30.01 in 10.0 mi West 19.6 mph - N/A   Clear
8:53 PM 57.9 °F 48.0 °F 70% 30.02 in 10.0 mi West 19.6 mph - N/A   Clear
9:53 PM 57.0 °F 48.9 °F 74% 30.03 in 10.0 mi West 16.1 mph - N/A   Clear
10:53 PM 57.0 °F 48.9 °F 74% 30.04 in 10.0 mi West 17.3 mph - N/A   Partly Cloudy
11:53 PM 55.9 °F 48.9 °F 77% 30.05 in 10.0 mi West 15.0 mph - N/A   Partly Cloudy